Regional Weather Roundup
Issued by NWS

Home | Current Version | Previous Version | Graphics & Text | Print | Product List | Glossary On
Versions: 1 2 3 4 5 6 7 8 9 10 11 12 13 14 15 16 17 18 19 20 21 22 23 24 25 26 27 28 29 30 31 32 33 34 35 36 37 38 39 40 41 42 43 44 45 46 47 48 49 50
000
ASUS43 KMKX 290759
RWRWI

WISCONSIN REGIONAL WEATHER ROUNDUP
NATIONAL WEATHER SERVICE MILWAUKEE/SULLIVAN WI
300 AM CDT SUN MAR 29 2015

NOTE: "FAIR" INDICATES FEW OR NO CLOUDS BELOW 12,000 FEET WITH NO
SIGNIFICANT WEATHER AND/OR OBSTRUCTIONS TO VISIBILITY.

WIZ001-002-006>008-014>016-023>028-290900-
NORTHWEST WISCONSIN

CITY           SKY/WX    TMP DP  RH WIND       PRES   REMARKS
SUPERIOR ARPT  CLOUDY    36  19  49 SW13G20   29.78F WCI  27
ASHLAND        MOCLDY    36  14  40 S21G35    29.81F WCI  25
HAYWARD        CLOUDY    34  14  43 S20G30    29.84F WCI  23
SIREN          MOCLDY    36  17  45 S17G25    29.83F WCI  26
CUMBERLAND     MOCLDY    32  18  55 S14G21    29.86F WCI  22
RICE LAKE      MOCLDY    33  16  48 S13       29.89F WCI  24
CHETEK         MOCLDY    32  16  50 SE12      29.90F WCI  23
LADYSMITH      MOCLDY    32  17  53 S10       29.93F WCI  24
EAU CLAIRE     PTCLDY    34  14  43 S13       29.91F WCI  25
MENOMONIE      PTCLDY    35  15  44 S15       29.92F WCI  26
NEW RICHMOND   PTCLDY    35  19  51 S16G22    29.87F WCI  25
OSCEOLA        MOCLDY    36  19  51 S18G24    29.88F WCI  25
$$

WIZ003>005-009-010-017-018-290900-
NORTH CENTRAL WISCONSIN

CITY           SKY/WX    TMP DP  RH WIND       PRES   REMARKS
MANITOWISH WTR CLOUDY    31  15  50 S12G18    29.87F WCI  22
ARBOR VITAE    CLOUDY    32  16  51 S15G22    29.89F WCI  21
WOODRUFF       CLOUDY    32  16  51 S15G22    29.89F WCI  21
RHINELANDER    CLOUDY    31  13  47 S14G23    29.92F WCI  21
EAGLE RIVER    MOCLDY    30  12  46 S6        29.91F WCI  24
LAND O LAKES   MOCLDY    31  14  48 S10G16    29.90F WCI  22
PHILLIPS       MOCLDY    31  14  49 S14       29.88F WCI  21
TOMAHAWK       CLOUDY    30  15  53 CALM      29.95F
MEDFORD        MOCLDY    30  16  56 S14G23    29.95S WCI  20
MERRILL        CLOUDY    32  14  47 S7        29.97F WCI  26
$$

WIZ029-030-035-036-043>047-290900-
CENTRAL WISCONSIN

CITY           SKY/WX    TMP DP  RH WIND       PRES   REMARKS
WAUSAU         CLOUDY    32  14  47 S16G24    29.97F WCI  21
MOSINEE        CLOUDY    32  14  47 S15G23    29.99F WCI  22
MARSHFIELD     CLOUDY    31  15  52 S13       29.97F WCI  21
STEVENS POINT  CLOUDY    30  13  50 S10G17    30.02F WCI  21
WAUPACA        MOCLDY    32  15  49 S10       30.06F WCI  24
WAUTOMA        NOT AVBL
WISC RAPIDS    CLOUDY    32  11  41 S10       30.02F WCI  24
CAMP DOUGLAS   NOT AVBL
$$

WIZ011>013-019>022-031-037>040-048>050-290900-
NORTHEAST WISCONSIN

CITY           SKY/WX    TMP DP  RH WIND       PRES   REMARKS
ANTIGO         MOCLDY    29  16  58 S13       29.98F WCI  19
SHAWANO        CLOUDY    33  16  50 S6        30.06F WCI  27
OCONTO         MOCLDY    29  17  61 S8        30.07F WCI  21
STURGEON BAY   PTCLDY    28  16  59 S13       30.09F WCI  18
GREEN BAY      MOCLDY    29  20  69 S9        30.07F WCI  20
MANITOWOC      NOT AVBL
APPLETON       MOCLDY    30  18  59 S12       30.08F WCI  21
CLINTONVILLE   MOCLDY    32  18  55 S9        30.05F WCI  24
OSHKOSH        MOCLDY    30  16  56 S17       30.07F WCI  18
$$

WIZ032>034-041-042-053>061-290900-
SOUTHWEST WISCONSIN

CITY           SKY/WX    TMP DP  RH WIND       PRES   REMARKS
LA CROSSE      MOCLDY    36  17  46 S16G24    30.00F WCI  26
SPARTA         CLOUDY    34  13  41 S12G17    30.02F WCI  26
VIROQUA        MOCLDY    32  16  52 S14G22    30.00S WCI  22
BOSCOBEL       PTCLDY    34  16  47 S9G16     30.05F WCI  27
PRAIRIE DU CHI PTCLDY    34  16  47 SE5       30.06F WCI  30
PLATTEVILLE    CLEAR     32  19  58 SE14      30.07F WCI  22
$$

WIZ056-057-062-063-064-067-068-290900-
SOUTH CENTRAL WISCONSIN

CITY           SKY/WX    TMP DP  RH WIND       PRES   REMARKS
REEDSBURG      MOCLDY    32  15  49 S10       30.05F WCI  24
BARABOO/DELLS  MOCLDY    31  14  48 S12G18    30.06F WCI  22
LONE ROCK      NOT AVBL
MINERAL POINT  MOCLDY    32  19  59 S12       30.06F WCI  23
MADISON        PTCLDY    32  15  49 S13       30.09F WCI  22
MIDDLETON      PTCLDY    32  15  50 S13       30.09F WCI  22
WATERTOWN      PTCLDY    27  17  63 S8        30.11F WCI  19
MONROE         MOCLDY    30  21  69 S14       30.10F WCI  20
JANESVILLE     CLEAR     32  16  51 S14       30.13F WCI  22
$$

WIZ051-052-058>065-066-070>072-290900-
SOUTHEAST WISCONSIN

CITY           SKY/WX    TMP DP  RH WIND       PRES   REMARKS
MILWAUKEE      PTCLDY    28  11  48 S9        30.16F WCI  19
WAUKESHA       PTCLDY    27  12  54 S9        30.15F WCI  17
MILWAUKEE/TIMM PTCLDY    28  10  47 S8        30.17F WCI  20
RACINE         PTCLDY    30  12  47 S10       30.18F WCI  21
BURLINGTON     PTCLDY    26  13  60 S8        30.16F WCI  17
KENOSHA        PTCLDY    27  14  58 S9        30.17F WCI  18
FOND DU LAC    MOCLDY    31  15  52 S20G25    30.08F WCI  19
SHEBOYGAN      MOCLDY    27  15  61 S13       30.12F WCI  16
WEST BEND      PTCLDY    28  12  50 S7        30.14F WCI  21
JUNEAU         MOCLDY    28  16  60 S14       30.12F WCI  17
$$

LSZ147-162-290900-
LAKE SUPERIOR

STATION/POSITION TIME  TEMP    WIND        PRES    WAVE
                       AIR SEA DIR/SP/G            HT/PER
                 (UTC) (F)     (DEG/KT/KT) (MB)    (FT/S)
DEVILS ISLAND    0700   36     190/ 11/ 17 1010.3F
PORT WING        0700   38     190/ 17/ 26 1009.1F
SAXON HARBOR     0720   37     190/ 10/ 23 1009.8F
$$

LMZ867-665-643>646-290900-
LAKE MICHIGAN

STATION/POSITION TIME  TEMP    WIND        PRES    WAVE
                       AIR SEA DIR/SP/G            HT/PER
                 (UTC) (F)     (DEG/KT/KT) (MB)    (FT/S)
NORTHPORT PIER   0700   29     170/  5/  9 1019.0F
SISTER BAY       0702   29     200/ 14/ 17   N/A
SHEBOYGAN LAKESH 0700   31     200/ 15/ 16 1022.3F
PORT WASHINGTON  0700   28     210/  7/ 11 1022.7F
MILWAUKEE LAKESH 0700   30     210/ 13/ 17   N/A
KENOSHA   LAKESH 0700   30     190/ 12/ 16 1023.0F
$$

TC  - TEMPERATURE IN CELSIUS
VSB - VISIBILITY IN STATUTE MILES
WCI - WIND CHILL INDEX
HX  - HEAT INDEX



USA.gov is the U.S. government's official web portal to all federal, state and local government web resources and services.